QPF
0.03 0.05 0.08 0.09 0.07 0.03 0.02 0.02 0.03 0.03 0.03 0.02 0.02 0.01 0.02 0.02 0.01 0.01 0.02 0.03 0.03 0.04 0.04 0.04 0.04 0.03 0.03 0.03 0.03 0.03 0.03 0.03 0.03 0.02 0.01 0.01 0.01 0.01 0.02 0.01 0.01 0.01 0.02
0.07 0.10 0.18 0.18 0.07 0.03 0.02 0.03 0.02 0.03 0.03 0.03 0.03 0.03 0.02 0.02 0.02 0.01 0.02 0.03 0.05 0.05 0.04 0.03 0.04 0.05 0.05 0.04 0.03 0.03 0.03 0.02 0.02 0.02 0.01 0.01 0.01 0.01 0.01 0.02 0.02 0.02 0.02
0.06 0.07 0.08 0.06 0.04 0.03 0.03 0.03 0.03 0.03 0.03 0.03 0.03 0.02 0.02 0.02 0.02 0.02 0.02 0.03 0.04 0.04 0.05 0.05 0.06 0.07 0.05 0.05 0.05 0.05 0.05 0.05 0.04 0.03 0.01 0.01 0.02 0.02 0.03 0.02 0.02 0.02 0.02
0.04 0.04 0.04 0.04 0.03 0.04 0.03 0.03 0.02 0.02 0.02 0.02 0.02 0.02 0.01 0.02 0.02 0.03 0.04 0.05 0.06 0.08 0.08 0.08 0.07 0.05 0.04 0.04 0.04 0.04 0.05 0.05 0.08 0.07 0.05 0.04 0.04 0.04 0.05 0.04 0.04 0.04 0.04
0.03 0.03 0.03 0.03 0.03 0.04 0.04 0.04 0.02 0.02 0.01 0.02 0.02 0.02 0.02 0.02 0.03 0.04 0.05 0.08 0.10 0.09 0.07 0.05 0.04 0.04 0.03 0.04 0.03 0.03 0.03 0.04 0.05 0.05 0.05 0.04 0.03 0.03 0.04 0.05 0.06 0.05 0.05
0.03 0.03 0.02 0.02 0.02 0.02 0.02 0.02 0.01 0.01 0.01 0.01 0.01 0.02 0.02 0.03 0.04 0.05 0.06 0.07 0.06 0.06 0.05 0.04 0.03 0.03 0.02 0.02 0.02 0.02 0.02 0.02 0.02 0.01 0.01 0.01 0.01 0.02 0.02 0.02 0.03 0.03 0.03
0.04 0.02 0.02 0.01 0.01 0.01 0.00 0.00 0.00 0.01 0.01 0.02 0.02 0.02 0.02 0.02 0.03 0.03 0.04 0.04 0.04 0.04 0.03 0.03 0.03 0.03 0.02 0.02 0.02 0.02 0.02 0.01 0.01 0.01 0.01 0.01 0.01 0.01 0.02 0.02 0.02 0.02 0.02
0.03 0.02 0.02 0.01 0.01 0.01 0.01 0.01 0.01 0.01 0.01 0.01 0.01 0.01 0.01 0.01 0.02 0.02 0.02 0.03 0.04 0.04 0.05 0.04 0.03 0.03 0.02 0.02 0.02 0.02 0.01 0.01 0.01 0.01 0.01 0.01 0.02 0.02 0.02 0.02 0.02 0.02 0.02
0.01 0.01 0.01 0.01 0.01 0.01 0.01 0.01 0.02 0.02 0.02 0.02 0.02 0.02 0.01 0.02 0.02 0.01 0.01 0.02 0.03 0.05 0.06 0.06 0.05 0.03 0.03 0.03 0.02 0.01 0.01 0.01 0.02 0.02 0.01 0.01 0.01 0.01 0.02 0.02 0.03 0.03 0.03
0.01 0.01 0.00 0.01 0.01 0.01 0.01 0.02 0.02 0.01 0.01 0.01 0.01 0.01 0.01 0.01 0.01 0.01 0.01 0.02 0.03 0.04 0.04 0.05 0.06 0.05 0.05 0.04 0.02 0.02 0.02 0.02 0.03 0.02 0.01 0.01 0.00 0.01 0.02 0.02 0.02 0.03 0.04
0.01 0.01 0.01 0.01 0.01 0.01 0.01 0.01 0.01 0.01 0.01 0.01 0.01 0.01 0.01 0.00 0.00 0.01 0.01 0.01 0.01 0.02 0.02 0.02 0.02 0.03 0.03 0.04 0.05 0.05 0.05 0.05 0.05 0.04 0.02 0.01 0.00 0.01 0.02 0.03 0.02 0.02 0.02
0.01 0.02 0.02 0.01 0.01 0.01 0.01 0.01 0.01 0.01 0.00 0.00 0.01 0.01 0.02 0.01 0.01 0.01 0.01 0.01 0.00 0.00 0.00 0.01 0.01 0.01 0.02 0.02 0.03 0.05 0.05 0.05 0.05 0.05 0.04 0.02 0.01 0.01 0.01 0.02 0.03 0.02 0.02
0.01 0.02 0.01 0.02 0.01 0.01 0.01 0.01 0.02 0.02 0.01 0.01 0.01 0.01 0.01 0.02 0.03 0.04 0.03 0.01 0.01 0.00 0.00 0.01 0.01 0.01 0.01 0.01 0.02 0.02 0.03 0.03 0.04 0.04 0.03 0.03 0.03 0.02 0.01 0.02 0.02 0.02 0.02
0.01 0.02 0.02 0.02 0.02 0.02 0.01 0.01 0.02 0.02 0.02 0.02 0.02 0.01 0.01 0.01 0.02 0.03 0.05 0.04 0.02 0.01 0.01 0.01 0.01 0.01 0.01 0.01 0.01 0.01 0.02 0.02 0.03 0.03 0.03 0.03 0.03 0.04 0.02 0.02 0.02 0.02 0.02
0.02 0.02 0.02 0.02 0.02 0.02 0.01 0.01 0.01 0.01 0.01 0.02 0.01 0.01 0.01 0.01 0.01 0.00 0.01 0.01 0.01 0.01 0.01 0.01 0.01 0.01 0.01 0.01 0.01 0.01 0.01 0.01 0.02 0.03 0.03 0.03 0.04 0.05 0.03 0.03 0.03 0.03 0.03
0.02 0.02 0.02 0.02 0.02 0.02 0.01 0.01 0.02 0.01 0.02 0.01 0.01 0.01 0.01 0.01 0.01 0.00 0.00 0.00 0.00 0.01 0.01 0.01 0.01 0.01 0.01 0.01 0.01 0.00 0.01 0.01 0.01 0.02 0.03 0.03 0.03 0.05 0.06 0.04 0.04 0.04 0.04
0.02 0.02 0.02 0.01 0.01 0.01 0.01 0.02 0.02 0.02 0.02 0.02 0.01 0.01 0.01 0.00 0.01 0.01 0.00 0.00 0.01 0.00 0.00 0.00 0.00 0.00 0.00 0.00 0.00 0.00 0.00 0.01 0.01 0.01 0.03 0.04 0.04 0.04 0.06 0.05 0.04 0.04 0.03
0.03 0.02 0.01 0.01 0.01 0.02 0.03 0.03 0.03 0.03 0.03 0.02 0.01 0.01 0.00 0.00 0.00 0.00 0.00 0.00 0.00 0.00 0.00 0.00 0.00 0.00 0.00 0.00 0.00 0.00 0.00 0.00 0.01 0.01 0.02 0.03 0.04 0.04 0.05 0.04 0.04 0.03 0.02
0.03 0.02 0.02 0.01 0.02 0.02 0.03 0.03 0.03 0.03 0.03 0.02 0.02 0.01 0.00 0.00 0.00 0.00 0.00 0.00 0.00 0.00 0.00 0.00 0.00 0.00 0.00 0.00 0.01 0.01 0.00 0.00 0.00 0.01 0.01 0.03 0.05 0.05 0.05 0.04 0.04 0.04 0.02
0.03 0.03 0.03 0.02 0.02 0.02 0.02 0.02 0.02 0.02 0.02 0.02 0.01 0.00 0.00 0.00 0.00 0.00 0.01 0.01 0.01 0.01 0.00 0.00 0.00 0.00 0.00 0.01 0.00 0.00 0.00 0.01 0.01 0.00 0.01 0.02 0.03 0.06 0.06 0.05 0.04 0.04 0.02
0.04 0.03 0.03 0.03 0.04 0.03 0.03 0.02 0.02 0.01 0.01 0.01 0.01 0.00 0.00 0.00 0.01 0.01 0.01 0.01 0.01 0.01 0.00 0.00 0.00 0.00 0.00 0.00 0.01 0.00 0.01 0.01 0.01 0.01 0.01 0.02 0.02 0.03 0.06 0.06 0.04 0.04 0.04
0.04 0.03 0.02 0.02 0.03 0.03 0.03 0.03 0.03 0.03 0.02 0.02 0.01 0.02 0.01 0.01 0.01 0.01 0.01 0.01 0.00 0.00 0.00 0.00 0.01 0.01 0.00 0.01 0.01 0.01 0.01 0.01 0.01 0.02 0.02 0.02 0.02 0.03 0.04 0.07 0.05 0.03 0.03
0.03 0.03 0.02 0.02 0.03 0.04 0.04 0.03 0.03 0.03 0.03 0.02 0.02 0.02 0.01 0.01 0.01 0.01 0.00 0.00 0.00 0.00 0.00 0.00 0.00 0.00 0.00 0.00 0.00 0.01 0.01 0.01 0.02 0.03 0.03 0.03 0.03 0.04 0.04 0.06 0.07 0.05 0.03
0.02 0.02 0.01 0.02 0.02 0.02 0.02 0.02 0.01 0.01 0.02 0.02 0.02 0.02 0.01 0.01 0.01 0.01 0.01 0.00 0.00 0.01 0.01 0.01 0.01 0.00 0.00 0.00 0.00 0.00 0.01 0.01 0.02 0.03 0.03 0.02 0.02 0.03 0.03 0.05 0.06 0.04 0.05
0.02 0.01 0.01 0.01 0.02 0.02 0.01 0.01 0.01 0.02 0.03 0.04 0.05 0.04 0.03 0.02 0.01 0.01 0.01 0.01 0.01 0.00 0.01 0.00 0.00 0.00 0.00 0.00 0.00 0.00 0.01 0.01 0.01 0.02 0.02 0.02 0.03 0.02 0.02 0.03 0.03 0.02 0.03
0.02 0.01 0.01 0.01 0.01 0.01 0.02 0.02 0.02 0.02 0.02 0.02 0.03 0.04 0.04 0.03 0.02 0.01 0.01 0.02 0.01 0.01 0.01 0.01 0.01 0.01 0.00 0.01 0.01 0.00 0.00 0.00 0.00 0.00 0.01 0.02 0.03 0.02 0.02 0.02 0.02 0.02 0.02
MSLP
1016.45 1016.60 1016.78 1016.98 1017.15 1017.27 1017.32 1017.28 1017.15 1016.94 1016.66 1016.33 1015.95 1015.54 1015.11 1014.67 1014.23 1013.79 1013.35 1012.90 1012.46 1012.00 1011.53 1011.03 1010.49 1009.91 1009.29 1008.64 1007.95 1007.26 1006.55 1005.84 1005.13 1004.43 1003.75 1003.08 1002.43 1001.83 1001.30 1000.87 1000.55 1000.39 1000.39
1017.07 1017.19 1017.34 1017.48 1017.61 1017.68 1017.70 1017.65 1017.53 1017.34 1017.08 1016.78 1016.42 1016.02 1015.60 1015.14 1014.67 1014.18 1013.67 1013.16 1012.64 1012.10 1011.55 1010.97 1010.37 1009.74 1009.09 1008.42 1007.74 1007.06 1006.38 1005.72 1005.06 1004.40 1003.76 1003.11 1002.48 1001.88 1001.33 1000.86 1000.50 1000.28 1000.22
1017.67 1017.79 1017.91 1018.02 1018.09 1018.13 1018.11 1018.04 1017.91 1017.72 1017.48 1017.19 1016.85 1016.46 1016.03 1015.56 1015.06 1014.53 1013.98 1013.42 1012.83 1012.23 1011.61 1010.97 1010.31 1009.63 1008.93 1008.23 1007.53 1006.85 1006.18 1005.52 1004.89 1004.26 1003.64 1003.03 1002.43 1001.84 1001.30 1000.83 1000.45 1000.20 1000.09
1018.24 1018.37 1018.48 1018.56 1018.59 1018.59 1018.53 1018.43 1018.28 1018.09 1017.85 1017.56 1017.22 1016.83 1016.39 1015.91 1015.39 1014.84 1014.25 1013.65 1013.03 1012.39 1011.72 1011.04 1010.33 1009.61 1008.87 1008.12 1007.38 1006.66 1005.95 1005.28 1004.63 1004.00 1003.39 1002.80 1002.22 1001.66 1001.14 1000.69 1000.31 1000.06 999.93
1018.76 1018.91 1019.02 1019.07 1019.08 1019.03 1018.94 1018.80 1018.63 1018.42 1018.17 1017.87 1017.53 1017.13 1016.69 1016.19 1015.65 1015.08 1014.48 1013.86 1013.22 1012.56 1011.88 1011.17 1010.43 1009.67 1008.88 1008.08 1007.27 1006.49 1005.72 1004.99 1004.29 1003.63 1003.00 1002.40 1001.84 1001.31 1000.82 1000.40 1000.06 999.82 999.69
1019.21 1019.39 1019.49 1019.53 1019.51 1019.43 1019.31 1019.15 1018.96 1018.73 1018.47 1018.16 1017.80 1017.39 1016.93 1016.42 1015.87 1015.28 1014.67 1014.05 1013.41 1012.74 1012.06 1011.33 1010.58 1009.78 1008.94 1008.08 1007.20 1006.33 1005.47 1004.66 1003.88 1003.16 1002.49 1001.87 1001.31 1000.80 1000.35 999.98 999.68 999.48 999.39
1019.57 1019.76 1019.88 1019.91 1019.87 1019.77 1019.63 1019.46 1019.26 1019.03 1018.76 1018.45 1018.09 1017.67 1017.19 1016.66 1016.09 1015.49 1014.87 1014.24 1013.59 1012.93 1012.23 1011.51 1010.73 1009.90 1009.02 1008.09 1007.14 1006.18 1005.23 1004.32 1003.46 1002.67 1001.94 1001.29 1000.72 1000.23 999.82 999.49 999.25 999.10 999.05
1019.83 1020.04 1020.15 1020.19 1020.14 1020.05 1019.91 1019.75 1019.56 1019.35 1019.09 1018.79 1018.42 1018.00 1017.51 1016.96 1016.38 1015.75 1015.12 1014.47 1013.80 1013.13 1012.42 1011.68 1010.88 1010.02 1009.10 1008.12 1007.11 1006.07 1005.04 1004.04 1003.10 1002.24 1001.46 1000.78 1000.19 999.71 999.33 999.04 998.85 998.75 998.75
1020.00 1020.21 1020.33 1020.37 1020.34 1020.26 1020.15 1020.02 1019.87 1019.69 1019.47 1019.19 1018.84 1018.42 1017.93 1017.37 1016.76 1016.11 1015.45 1014.77 1014.08 1013.38 1012.65 1011.88 1011.06 1010.18 1009.23 1008.21 1007.15 1006.06 1004.97 1003.91 1002.91 1001.99 1001.17 1000.45 999.85 999.36 998.99 998.73 998.57 998.51 998.54
1020.08 1020.29 1020.41 1020.46 1020.46 1020.42 1020.35 1020.28 1020.18 1020.05 1019.88 1019.64 1019.33 1018.92 1018.44 1017.87 1017.25 1016.57 1015.87 1015.16 1014.43 1013.70 1012.94 1012.14 1011.30 1010.40 1009.43 1008.40 1007.32 1006.21 1005.10 1004.01 1002.98 1002.02 1001.16 1000.41 999.78 999.27 998.88 998.61 998.46 998.41 998.45
1020.08 1020.29 1020.42 1020.49 1020.52 1020.52 1020.52 1020.51 1020.47 1020.41 1020.30 1020.11 1019.84 1019.46 1018.99 1018.43 1017.80 1017.11 1016.39 1015.64 1014.88 1014.11 1013.31 1012.50 1011.64 1010.73 1009.76 1008.74 1007.67 1006.57 1005.47 1004.38 1003.34 1002.36 1001.47 1000.68 1000.01 999.45 999.02 998.71 998.52 998.44 998.46
1020.02 1020.22 1020.37 1020.46 1020.53 1020.59 1020.64 1020.69 1020.72 1020.72 1020.67 1020.53 1020.30 1019.97 1019.53 1018.99 1018.36 1017.67 1016.93 1016.17 1015.39 1014.59 1013.78 1012.95 1012.09 1011.19 1010.25 1009.26 1008.23 1007.17 1006.10 1005.04 1004.00 1003.02 1002.10 1001.26 1000.53 999.90 999.38 998.99 998.72 998.56 998.52
1019.91 1020.12 1020.28 1020.40 1020.51 1020.61 1020.71 1020.81 1020.89 1020.94 1020.93 1020.85 1020.66 1020.36 1019.96 1019.45 1018.86 1018.19 1017.47 1016.71 1015.93 1015.14 1014.33 1013.51 1012.66 1011.79 1010.89 1009.95 1008.97 1007.98 1006.96 1005.93 1004.92 1003.93 1002.98 1002.08 1001.26 1000.53 999.90 999.39 999.00 998.74 998.60
1019.78 1019.99 1020.17 1020.32 1020.46 1020.60 1020.73 1020.86 1020.98 1021.05 1021.07 1021.01 1020.86 1020.60 1020.24 1019.78 1019.23 1018.61 1017.93 1017.21 1016.46 1015.70 1014.92 1014.13 1013.32 1012.49 1011.65 1010.77 1009.87 1008.94 1007.98 1007.00 1006.00 1005.01 1004.02 1003.05 1002.13 1001.28 1000.51 999.86 999.32 998.92 998.66
1019.65 1019.87 1020.06 1020.24 1020.40 1020.56 1020.71 1020.85 1020.96 1021.04 1021.07 1021.02 1020.89 1020.67 1020.35 1019.95 1019.46 1018.91 1018.30 1017.64 1016.95 1016.24 1015.51 1014.77 1014.02 1013.25 1012.47 1011.66 1010.83 1009.97 1009.07 1008.14 1007.17 1006.16 1005.13 1004.09 1003.07 1002.09 1001.18 1000.37 999.68 999.13 998.74
1019.54 1019.77 1019.97 1020.16 1020.34 1020.51 1020.66 1020.79 1020.89 1020.95 1020.96 1020.91 1020.79 1020.59 1020.32 1019.97 1019.56 1019.08 1018.55 1017.98 1017.36 1016.72 1016.06 1015.39 1014.70 1013.99 1013.28 1012.55 1011.79 1011.00 1010.16 1009.27 1008.32 1007.32 1006.26 1005.16 1004.04 1002.95 1001.90 1000.94 1000.10 999.41 998.88
1019.45 1019.69 1019.91 1020.11 1020.30 1020.46 1020.60 1020.71 1020.78 1020.81 1020.79 1020.73 1020.60 1020.43 1020.19 1019.90 1019.55 1019.16 1018.71 1018.22 1017.69 1017.13 1016.54 1015.93 1015.31 1014.67 1014.02 1013.36 1012.67 1011.95 1011.17 1010.33 1009.42 1008.43 1007.35 1006.22 1005.04 1003.85 1002.70 1001.62 1000.64 999.82 999.17
1019.38 1019.63 1019.86 1020.08 1020.27 1020.43 1020.55 1020.63 1020.68 1020.67 1020.63 1020.54 1020.41 1020.24 1020.03 1019.79 1019.50 1019.17 1018.80 1018.39 1017.94 1017.44 1016.92 1016.37 1015.80 1015.23 1014.64 1014.04 1013.42 1012.77 1012.06 1011.29 1010.43 1009.47 1008.42 1007.28 1006.07 1004.84 1003.61 1002.44 1001.37 1000.43 999.67
1019.32 1019.57 1019.82 1020.04 1020.24 1020.40 1020.51 1020.58 1020.59 1020.56 1020.48 1020.37 1020.23 1020.07 1019.88 1019.67 1019.42 1019.15 1018.84 1018.48 1018.08 1017.64 1017.17 1016.67 1016.15 1015.63 1015.10 1014.57 1014.02 1013.44 1012.81 1012.11 1011.33 1010.44 1009.44 1008.34 1007.15 1005.91 1004.65 1003.43 1002.29 1001.27 1000.41
1019.23 1019.49 1019.75 1019.99 1020.19 1020.35 1020.47 1020.52 1020.52 1020.47 1020.37 1020.24 1020.09 1019.93 1019.74 1019.55 1019.33 1019.08 1018.80 1018.48 1018.12 1017.71 1017.28 1016.81 1016.34 1015.86 1015.38 1014.91 1014.43 1013.94 1013.40 1012.80 1012.11 1011.32 1010.41 1009.38 1008.25 1007.04 1005.80 1004.57 1003.39 1002.31 1001.37
1019.09 1019.36 1019.63 1019.88 1020.10 1020.27 1020.39 1020.44 1020.43 1020.37 1020.27 1020.13 1019.97 1019.79 1019.61 1019.41 1019.20 1018.96 1018.69 1018.39 1018.03 1017.65 1017.23 1016.79 1016.35 1015.91 1015.49 1015.08 1014.68 1014.27 1013.84 1013.35 1012.78 1012.10 1011.30 1010.37 1009.33 1008.19 1007.00 1005.79 1004.61 1003.49 1002.49
1018.89 1019.16 1019.44 1019.71 1019.94 1020.12 1020.25 1020.31 1020.30 1020.24 1020.13 1019.98 1019.81 1019.63 1019.43 1019.23 1019.01 1018.76 1018.49 1018.17 1017.82 1017.44 1017.03 1016.62 1016.20 1015.80 1015.43 1015.09 1014.77 1014.46 1014.13 1013.75 1013.30 1012.75 1012.07 1011.27 1010.33 1009.29 1008.17 1007.00 1005.84 1004.71 1003.67
1018.61 1018.90 1019.18 1019.46 1019.70 1019.89 1020.03 1020.09 1020.09 1020.03 1019.92 1019.77 1019.59 1019.39 1019.19 1018.96 1018.73 1018.47 1018.17 1017.85 1017.50 1017.11 1016.72 1016.32 1015.93 1015.58 1015.26 1014.98 1014.74 1014.52 1014.29 1014.02 1013.69 1013.26 1012.70 1012.01 1011.19 1010.25 1009.21 1008.12 1006.99 1005.89 1004.83
1018.29 1018.58 1018.87 1019.14 1019.39 1019.58 1019.72 1019.78 1019.78 1019.72 1019.61 1019.46 1019.27 1019.07 1018.85 1018.61 1018.36 1018.08 1017.78 1017.45 1017.10 1016.72 1016.34 1015.96 1015.61 1015.30 1015.03 1014.82 1014.65 1014.50 1014.36 1014.18 1013.95 1013.62 1013.17 1012.59 1011.88 1011.04 1010.09 1009.07 1008.02 1006.95 1005.92
1017.93 1018.22 1018.51 1018.78 1019.02 1019.20 1019.33 1019.39 1019.39 1019.32 1019.21 1019.05 1018.87 1018.66 1018.43 1018.19 1017.94 1017.66 1017.36 1017.03 1016.69 1016.33 1015.97 1015.63 1015.32 1015.05 1014.83 1014.67 1014.56 1014.47 1014.39 1014.29 1014.13 1013.88 1013.51 1013.02 1012.40 1011.65 1010.80 1009.87 1008.89 1007.89 1006.92
1017.56 1017.85 1018.13 1018.39 1018.61 1018.78 1018.88 1018.93 1018.91 1018.84 1018.72 1018.57 1018.39 1018.19 1017.98 1017.75 1017.51 1017.25 1016.96 1016.66 1016.34 1016.02 1015.70 1015.39 1015.12 1014.90 1014.73 1014.61 1014.54 1014.49 1014.45 1014.39 1014.27 1014.07 1013.76 1013.33 1012.78 1012.12 1011.35 1010.51 1009.63 1008.73 1007.84
Thickness
5756 5753 5750 5748 5745 5742 5739 5737 5736 5734 5732 5730 5728 5726 5724 5722 5720 5718 5715 5713 5710 5708 5707 5704 5702 5699 5697 5695 5693 5692 5689 5687 5683 5683 5683 5683 5684 5684 5684 5685 5685 5684 5684
5754 5751 5748 5745 5742 5739 5736 5733 5732 5730 5727 5725 5723 5721 5719 5717 5714 5712 5709 5707 5705 5702 5700 5698 5696 5694 5691 5689 5687 5685 5683 5681 5678 5676 5676 5676 5676 5677 5677 5677 5678 5679 5678
5752 5748 5744 5741 5737 5734 5732 5730 5728 5726 5723 5720 5718 5716 5713 5711 5709 5706 5704 5701 5699 5697 5695 5693 5690 5688 5686 5683 5681 5679 5677 5675 5672 5670 5669 5668 5668 5669 5669 5669 5670 5670 5671
5748 5744 5740 5737 5733 5730 5728 5726 5724 5721 5718 5715 5713 5710 5708 5706 5703 5701 5698 5696 5693 5692 5690 5687 5685 5683 5680 5677 5675 5672 5671 5668 5666 5664 5662 5661 5660 5660 5660 5660 5661 5661 5662
5743 5739 5735 5732 5729 5726 5723 5720 5718 5716 5713 5709 5706 5704 5702 5700 5697 5694 5692 5690 5687 5685 5683 5681 5679 5678 5675 5673 5671 5667 5665 5662 5660 5657 5656 5654 5653 5653 5652 5652 5652 5653 5653
5738 5734 5731 5727 5724 5720 5717 5714 5712 5709 5706 5702 5699 5696 5694 5693 5691 5688 5686 5683 5681 5678 5676 5674 5673 5670 5669 5667 5665 5662 5660 5657 5654 5652 5650 5648 5647 5646 5645 5645 5644 5644 5644
5733 5729 5725 5722 5718 5715 5712 5708 5705 5702 5699 5696 5692 5689 5687 5685 5683 5681 5679 5676 5673 5670 5668 5666 5665 5664 5661 5659 5657 5656 5654 5653 5650 5647 5645 5643 5642 5641 5639 5638 5637 5636 5636
5729 5724 5721 5717 5713 5709 5706 5702 5698 5695 5692 5689 5685 5682 5679 5677 5675 5673 5671 5669 5665 5662 5660 5658 5656 5655 5654 5652 5650 5649 5647 5646 5644 5642 5641 5640 5638 5636 5634 5633 5631 5629 5629
5723 5720 5716 5712 5708 5704 5700 5696 5692 5688 5685 5682 5678 5674 5671 5669 5667 5665 5663 5660 5657 5654 5652 5650 5648 5646 5645 5644 5642 5641 5640 5639 5639 5637 5636 5634 5633 5631 5629 5626 5624 5623 5622
5719 5715 5711 5707 5703 5698 5694 5690 5686 5682 5678 5675 5671 5667 5663 5661 5659 5657 5655 5652 5648 5645 5643 5641 5640 5638 5637 5635 5633 5633 5632 5632 5630 5630 5629 5628 5626 5624 5622 5620 5618 5615 5614
5714 5710 5705 5701 5697 5693 5688 5684 5679 5675 5671 5667 5663 5659 5656 5653 5650 5648 5646 5642 5639 5636 5634 5632 5631 5629 5628 5627 5625 5625 5624 5623 5622 5621 5620 5619 5618 5616 5615 5613 5611 5609 5608
5708 5703 5699 5695 5692 5687 5681 5676 5672 5668 5663 5658 5654 5650 5647 5644 5641 5639 5636 5633 5630 5627 5625 5623 5622 5620 5619 5618 5617 5617 5616 5615 5614 5613 5612 5610 5609 5608 5607 5606 5604 5603 5602
5701 5696 5691 5687 5683 5679 5674 5669 5664 5660 5655 5651 5646 5642 5638 5636 5633 5630 5627 5625 5622 5619 5616 5615 5613 5612 5611 5610 5609 5608 5607 5606 5605 5604 5603 5602 5601 5600 5599 5599 5598 5597 5596
5694 5689 5684 5679 5675 5670 5666 5662 5657 5652 5648 5643 5639 5634 5631 5628 5624 5622 5619 5616 5614 5611 5609 5607 5605 5604 5603 5601 5600 5599 5598 5596 5595 5594 5594 5593 5593 5592 5591 5591 5590 5589 5589
5687 5682 5677 5673 5668 5663 5658 5654 5650 5646 5642 5636 5632 5627 5623 5620 5616 5613 5610 5608 5605 5603 5600 5599 5598 5596 5595 5593 5592 5590 5589 5588 5587 5586 5585 5585 5585 5584 5584 5583 5582 5582 5581
5680 5675 5670 5665 5660 5656 5651 5647 5643 5639 5635 5631 5626 5621 5617 5613 5610 5606 5603 5600 5597 5595 5593 5591 5589 5587 5585 5584 5583 5582 5581 5580 5579 5578 5577 5577 5577 5576 5576 5575 5575 5574 5574
5674 5668 5663 5659 5654 5650 5645 5641 5636 5632 5628 5624 5619 5615 5611 5607 5603 5600 5597 5594 5590 5588 5585 5583 5581 5579 5577 5576 5574 5574 5573 5572 5571 5570 5569 5569 5569 5569 5568 5568 5568 5567 5567
5667 5663 5658 5653 5649 5644 5640 5635 5631 5626 5622 5618 5613 5609 5606 5602 5598 5594 5591 5588 5584 5581 5578 5576 5574 5572 5570 5569 5567 5566 5565 5564 5563 5562 5562 5561 5561 5561 5561 5561 5561 5560 5559
5661 5656 5651 5647 5643 5638 5634 5630 5625 5620 5616 5612 5608 5604 5600 5596 5593 5589 5585 5582 5579 5576 5573 5570 5568 5566 5564 5562 5560 5559 5558 5557 5556 5555 5554 5553 5553 5553 5554 5554 5554 5552 5552
5655 5651 5646 5641 5637 5632 5628 5624 5619 5615 5610 5607 5603 5599 5594 5591 5588 5583 5580 5577 5574 5571 5568 5565 5563 5560 5558 5556 5554 5553 5552 5550 5549 5548 5547 5546 5545 5546 5546 5547 5547 5546 5546
5649 5645 5641 5636 5631 5627 5623 5619 5614 5610 5606 5602 5598 5594 5589 5586 5583 5579 5575 5571 5568 5566 5563 5560 5557 5554 5552 5550 5549 5547 5545 5544 5542 5540 5540 5539 5539 5539 5539 5540 5540 5539 5539
5643 5639 5634 5630 5626 5621 5617 5613 5609 5605 5601 5597 5593 5589 5584 5580 5577 5574 5570 5567 5563 5560 5557 5554 5552 5549 5547 5544 5542 5541 5539 5537 5536 5534 5533 5532 5532 5532 5532 5532 5533 5532 5532
5637 5633 5628 5623 5619 5615 5610 5607 5603 5600 5596 5592 5588 5584 5580 5576 5572 5569 5565 5562 5558 5555 5552 5549 5546 5544 5541 5539 5536 5534 5533 5531 5529 5527 5526 5526 5525 5525 5525 5525 5525 5525 5525
5632 5627 5623 5618 5614 5610 5606 5601 5598 5594 5591 5588 5584 5579 5576 5571 5568 5564 5560 5557 5553 5550 5547 5544 5541 5538 5536 5533 5530 5528 5526 5524 5522 5521 5520 5519 5519 5518 5518 5518 5518 5518 5517
5626 5622 5618 5613 5609 5605 5601 5597 5593 5589 5586 5582 5578 5575 5571 5567 5563 5559 5555 5551 5548 5545 5541 5538 5535 5532 5530 5527 5524 5522 5520 5518 5516 5514 5514 5513 5513 5512 5512 5512 5512 5512 5512
5621 5617 5612 5608 5604 5600 5596 5592 5588 5584 5580 5577 5573 5569 5566 5562 5558 5554 5549 5546 5543 5539 5536 5533 5529 5526 5524 5521 5519 5517 5515 5513 5511 5509 5508 5508 5507 5507 5506 5506 5506 5506 5506